RYR50XY LFMU-EGGW

Flight info

Callsign RYR50XY
Flight time 1h 34m
Altitude 38000
Route FJR DCT NG DCT MOLEN DCT MTL DCT ETREK DCT MADOT DCT MOPEM DCT CACHI DCT AVLON DCT OKRIX DCT BRY DCT CLM DCT KOPOR DCT PIREG DCT SOSUN DCT SUBIP UM733 UNDUG
Aircraft B738/M-SDE2E3FGHIRWXY/LB1

Departure

Time 2026-04-25 16:53
Airport Béziers Vias airport (LFMU)

Arrival

Time 2026-04-25 18:27
Airport London Luton Airport (EGGW)
Time Latitude Longitude Altitude Speed Heading
2026-04-25 16:32 43.32134 3.35401 57 ft 0 kts 307°
2026-04-25 16:49 43.32147 3.35383 55 ft 7 kts 317°
2026-04-25 16:50 43.32190 3.35333 52 ft 8 kts 332°
2026-04-25 16:50 43.32246 3.35329 56 ft 8 kts
2026-04-25 16:50 43.32307 3.35337 55 ft 10 kts 16°
2026-04-25 16:50 43.32340 3.35426 51 ft 13 kts 89°
2026-04-25 16:51 43.32331 3.35588 52 ft 22 kts 94°
2026-04-25 16:51 43.32318 3.35825 53 ft 28 kts 94°
2026-04-25 16:51 43.32302 3.36108 48 ft 28 kts 94°
2026-04-25 16:51 43.32292 3.36285 51 ft 27 kts 94°
2026-04-25 16:52 43.32274 3.36608 50 ft 21 kts 94°
2026-04-25 16:52 43.32246 3.36718 51 ft 5 kts 87°
2026-04-25 16:52 43.32269 3.36698 48 ft 10 kts 277°
2026-04-25 16:52 43.32293 3.36262 50 ft 85 kts 274°
2026-04-25 16:53 43.32442 3.33557 657 ft 162 kts 273°
2026-04-25 16:53 43.32743 3.32040 1547 ft 168 kts 289°
2026-04-25 16:53 43.33219 3.30420 2007 ft 200 kts 289°
2026-04-25 16:54 43.33778 3.28566 2351 ft 222 kts 296°
2026-04-25 16:54 43.34886 3.26928 2723 ft 251 kts 326°
2026-04-25 16:54 43.36602 3.26218 3532 ft 259 kts 357°
2026-04-25 16:54 43.38337 3.26723 4742 ft 259 kts 25°
2026-04-25 16:55 43.39717 3.28367 5552 ft 272 kts 54°
2026-04-25 16:55 43.40352 3.30840 6470 ft 279 kts 82°
2026-04-25 16:55 43.40295 3.33532 7310 ft 284 kts 94°
2026-04-25 16:55 43.40067 3.36251 8111 ft 289 kts 95°
2026-04-25 16:56 43.39853 3.39013 8966 ft 291 kts 93°
2026-04-25 16:56 43.39670 3.41796 9791 ft 294 kts 92°
2026-04-25 16:56 43.39502 3.44626 10477 ft 303 kts 91°
2026-04-25 16:56 43.39735 3.47584 10640 ft 323 kts 67°
2026-04-25 16:57 43.40714 3.50450 11044 ft 337 kts 60°
2026-04-25 16:57 43.41073 3.51421 11262 ft 339 kts 60°
2026-04-25 16:57 43.42887 3.56262 12495 ft 345 kts 60°
2026-04-25 16:57 43.43985 3.59217 13278 ft 349 kts 60°
2026-04-25 16:58 43.45091 3.62218 13986 ft 354 kts 61°
2026-04-25 16:58 43.46209 3.65265 14605 ft 360 kts 61°
2026-04-25 16:58 43.47339 3.68364 15232 ft 365 kts 62°
2026-04-25 16:58 43.48479 3.71498 15900 ft 368 kts 63°
2026-04-25 16:59 43.49632 3.74682 16498 ft 374 kts 60°
2026-04-25 16:59 43.50799 3.77914 17107 ft 379 kts 61°
2026-04-25 16:59 43.51984 3.81194 17703 ft 385 kts 62°
2026-04-25 16:59 43.53173 3.84495 18455 ft 385 kts 62°
2026-04-25 17:00 43.54354 3.87779 18938 ft 391 kts 62°
2026-04-25 17:00 43.55568 3.91153 19480 ft 394 kts 62°
2026-04-25 17:00 43.56787 3.94545 20095 ft 396 kts 62°
2026-04-25 17:00 43.58023 3.97966 20552 ft 401 kts 61°
2026-04-25 17:01 43.59375 4.01341 21127 ft 403 kts 57°
2026-04-25 17:01 43.60809 4.04675 21654 ft 405 kts 57°
2026-04-25 17:01 43.62269 4.08022 22227 ft 408 kts 58°
2026-04-25 17:01 43.63732 4.11389 22743 ft 411 kts 57°
2026-04-25 17:02 43.65199 4.14796 23285 ft 414 kts 58°
2026-04-25 17:02 43.66668 4.18238 23755 ft 417 kts 58°
2026-04-25 17:02 43.68140 4.21707 24160 ft 420 kts 58°
2026-04-25 17:02 43.69620 4.25206 24579 ft 423 kts 57°
2026-04-25 17:03 43.71106 4.28728 25023 ft 425 kts 58°
2026-04-25 17:03 43.72598 4.32266 25449 ft 427 kts 58°
2026-04-25 17:03 43.74098 4.35826 25862 ft 430 kts 58°
2026-04-25 17:03 43.75801 4.39213 26226 ft 429 kts 44°
2026-04-25 17:04 43.78122 4.41773 26601 ft 427 kts 27°
2026-04-25 17:04 43.80846 4.43358 27019 ft 424 kts 12°
2026-04-25 17:04 43.83719 4.44283 27417 ft 425 kts 10°
2026-04-25 17:04 43.86620 4.45158 27763 ft 428 kts 10°
2026-04-25 17:05 43.89539 4.46053 28125 ft 431 kts 10°
2026-04-25 17:05 43.95401 4.47932 28867 ft 435 kts 11°
2026-04-25 17:05 43.98313 4.48890 29187 ft 438 kts 11°
2026-04-25 17:06 44.01323 4.49885 29537 ft 440 kts 11°
2026-04-25 17:06 44.04259 4.50856 29882 ft 441 kts 11°
2026-04-25 17:06 44.07225 4.52008 30160 ft 445 kts 16°
2026-04-25 17:06 44.10144 4.53498 30404 ft 448 kts 18°
2026-04-25 17:07 44.13057 4.55092 30643 ft 451 kts 19°
2026-04-25 17:07 44.15975 4.56713 30905 ft 453 kts 19°
2026-04-25 17:07 44.18905 4.58329 31220 ft 453 kts 19°
2026-04-25 17:07 44.21847 4.59930 31516 ft 454 kts 19°
2026-04-25 17:08 44.24792 4.61516 31856 ft 453 kts 19°
2026-04-25 17:08 44.27732 4.63090 32200 ft 452 kts 19°
2026-04-25 17:08 44.30672 4.64660 32481 ft 453 kts 19°
2026-04-25 17:08 44.33619 4.66234 32778 ft 453 kts 19°
2026-04-25 17:09 44.36564 4.67809 33105 ft 453 kts 19°
2026-04-25 17:09 44.39507 4.69384 33435 ft 453 kts 19°
2026-04-25 17:09 44.42445 4.70960 33766 ft 453 kts 19°
2026-04-25 17:09 44.45382 4.72539 34083 ft 452 kts 19°
2026-04-25 17:10 44.48318 4.74119 34331 ft 452 kts 19°
2026-04-25 17:10 44.51253 4.75692 34598 ft 451 kts 17°
2026-04-25 17:10 44.54264 4.76856 34858 ft 447 kts
2026-04-25 17:10 44.57346 4.77284 35127 ft 444 kts 358°
2026-04-25 17:11 44.60415 4.77065 35371 ft 441 kts 349°
2026-04-25 17:11 44.63440 4.76400 35613 ft 440 kts 348°
2026-04-25 17:11 44.66458 4.75687 35852 ft 440 kts 348°
2026-04-25 17:11 44.69472 4.74969 36105 ft 439 kts 348°
2026-04-25 17:12 44.72488 4.74263 36321 ft 439 kts 348°
2026-04-25 17:12 44.75502 4.73570 36554 ft 439 kts 348°
2026-04-25 17:12 44.78514 4.72889 36818 ft 438 kts 348°
2026-04-25 17:12 44.81521 4.72216 37042 ft 438 kts 348°
2026-04-25 17:13 44.84531 4.71546 37244 ft 438 kts 348°
2026-04-25 17:13 44.85508 4.71329 37307 ft 438 kts 348°
2026-04-25 17:13 44.90548 4.70205 37703 ft 437 kts 348°
2026-04-25 17:13 44.93511 4.69545 37907 ft 437 kts 348°
2026-04-25 17:14 44.96514 4.68875 38049 ft 438 kts 348°
2026-04-25 17:14 44.99526 4.68201 38042 ft 439 kts 348°
2026-04-25 17:14 45.05552 4.66848 38055 ft 438 kts 348°
2026-04-25 17:15 45.11559 4.65496 38064 ft 436 kts 348°
2026-04-25 17:15 45.17545 4.64150 38061 ft 435 kts 348°
2026-04-25 17:16 45.23513 4.62797 38070 ft 434 kts 348°
2026-04-25 17:16 45.29478 4.61431 38097 ft 434 kts 348°
2026-04-25 17:17 45.35444 4.60060 38092 ft 435 kts 348°
2026-04-25 17:17 45.41420 4.58692 38089 ft 435 kts 348°
2026-04-25 17:18 45.47407 4.57319 38090 ft 436 kts 348°
2026-04-25 17:18 45.53404 4.55938 38098 ft 437 kts 348°
2026-04-25 17:19 45.59424 4.54547 38093 ft 439 kts 348°
2026-04-25 17:19 45.65451 4.53153 38105 ft 439 kts 348°
2026-04-25 17:20 45.71489 4.51753 38100 ft 440 kts 348°
2026-04-25 17:20 45.77533 4.50349 38086 ft 440 kts 348°
2026-04-25 17:21 45.83580 4.48942 38088 ft 441 kts 348°
2026-04-25 17:21 45.89629 4.47531 38095 ft 440 kts 348°
2026-04-25 17:22 45.93634 4.46595 38097 ft 440 kts 348°
2026-04-25 17:22 46.00685 4.44943 38093 ft 439 kts 348°
2026-04-25 17:23 46.06702 4.43530 38099 ft 437 kts 348°
2026-04-25 17:23 46.12696 4.42119 38108 ft 436 kts 348°
2026-04-25 17:24 46.18685 4.40706 38096 ft 435 kts 348°
2026-04-25 17:24 46.24655 4.39295 38097 ft 434 kts 348°
2026-04-25 17:25 46.30608 4.37759 38104 ft 434 kts 345°
2026-04-25 17:25 46.36479 4.35711 38104 ft 434 kts 343°
2026-04-25 17:26 46.42293 4.33586 38099 ft 434 kts 343°
2026-04-25 17:26 46.48159 4.31484 38100 ft 435 kts 343°
2026-04-25 17:27 46.54039 4.29406 38100 ft 435 kts 343°
2026-04-25 17:27 46.58978 4.27665 38103 ft 436 kts 343°
2026-04-25 17:28 46.65835 4.25239 38101 ft 436 kts 343°
2026-04-25 17:28 46.71735 4.23149 38098 ft 437 kts 343°
2026-04-25 17:29 46.77643 4.21049 38097 ft 437 kts 343°
2026-04-25 17:29 46.83545 4.18948 38096 ft 437 kts 343°
2026-04-25 17:30 46.89448 4.16842 38108 ft 436 kts 343°
2026-04-25 17:30 46.95345 4.14732 38113 ft 436 kts 343°
2026-04-25 17:31 47.01252 4.12614 38104 ft 437 kts 343°
2026-04-25 17:31 47.07149 4.10443 38111 ft 436 kts 340°
2026-04-25 17:32 47.12797 4.07280 38119 ft 434 kts 334°
2026-04-25 17:32 47.18368 4.03847 38098 ft 434 kts 335°
2026-04-25 17:33 47.23952 4.00467 38111 ft 434 kts 335°
2026-04-25 17:33 47.29551 3.97131 38112 ft 434 kts 335°
2026-04-25 17:34 47.35152 3.93802 38112 ft 434 kts 335°
2026-04-25 17:34 47.40757 3.90461 38111 ft 435 kts 335°
2026-04-25 17:35 47.46366 3.87111 38118 ft 435 kts 335°
2026-04-25 17:35 47.51975 3.83751 38113 ft 435 kts 335°
2026-04-25 17:36 47.57592 3.80378 38109 ft 436 kts 335°
2026-04-25 17:36 47.63211 3.76999 38118 ft 436 kts 335°
2026-04-25 17:37 47.68829 3.73616 38114 ft 435 kts 335°
2026-04-25 17:37 47.74435 3.70228 38122 ft 435 kts 335°
2026-04-25 17:38 47.79093 3.67409 38114 ft 435 kts 335°
2026-04-25 17:38 47.85617 3.63451 38117 ft 435 kts 335°
2026-04-25 17:39 47.91221 3.60039 38111 ft 435 kts 335°
2026-04-25 17:39 47.96811 3.56630 38132 ft 434 kts 335°
2026-04-25 17:40 48.02390 3.53210 38118 ft 433 kts 334°
2026-04-25 17:40 48.07960 3.49785 38113 ft 432 kts 334°
2026-04-25 17:41 48.13511 3.46363 38121 ft 431 kts 334°
2026-04-25 17:41 48.19055 3.42935 38123 ft 431 kts 334°
2026-04-25 17:42 48.24599 3.39499 38119 ft 431 kts 334°
2026-04-25 17:42 48.30148 3.36053 38126 ft 432 kts 334°
2026-04-25 17:43 48.35706 3.32594 38131 ft 433 kts 334°
2026-04-25 17:43 48.41275 3.29119 38133 ft 434 kts 334°
2026-04-25 17:44 48.46839 3.25588 38128 ft 434 kts 334°
2026-04-25 17:44 48.52406 3.22025 38133 ft 435 kts 334°
2026-04-25 17:45 48.56091 3.19663 38128 ft 435 kts 334°
2026-04-25 17:45 48.63508 3.14907 38140 ft 436 kts 334°
2026-04-25 17:46 48.69083 3.11324 38140 ft 435 kts 334°
2026-04-25 17:46 48.74690 3.07708 38128 ft 435 kts 334°
2026-04-25 17:47 48.80256 3.04112 38140 ft 435 kts 334°
2026-04-25 17:47 48.85744 3.00429 38137 ft 432 kts 329°
2026-04-25 17:48 48.93532 2.93620 38154 ft 430 kts 326°
2026-04-25 17:49 48.98686 2.88996 38156 ft 430 kts 327°
2026-04-25 17:49 49.03867 2.84412 38153 ft 431 kts 327°
2026-04-25 17:50 49.09058 2.79841 38158 ft 431 kts 327°
2026-04-25 17:50 49.14255 2.75260 38164 ft 432 kts 327°
2026-04-25 17:51 49.19455 2.70661 38160 ft 432 kts 327°
2026-04-25 17:51 49.24661 2.66046 38163 ft 433 kts 327°
2026-04-25 17:52 49.29872 2.61414 38177 ft 433 kts 327°
2026-04-25 17:52 49.35093 2.56765 38177 ft 434 kts 327°
2026-04-25 17:53 49.40311 2.52103 38174 ft 434 kts 327°
2026-04-25 17:53 49.45526 2.47433 38175 ft 434 kts 327°
2026-04-25 17:54 49.50734 2.42740 38196 ft 433 kts 324°
2026-04-25 17:54 49.55377 2.36961 38186 ft 428 kts 315°
2026-04-25 17:55 49.59763 2.30739 38179 ft 428 kts 314°
2026-04-25 17:55 49.64164 2.24552 38177 ft 428 kts 315°
2026-04-25 17:56 49.68550 2.18446 38179 ft 427 kts 315°
2026-04-25 17:56 49.72969 2.12301 38182 ft 427 kts 315°
2026-04-25 17:57 49.77380 2.06149 38178 ft 427 kts 315°
2026-04-25 17:57 49.81786 1.99990 38157 ft 427 kts 315°
2026-04-25 17:58 49.86150 1.93776 38159 ft 424 kts 310°
2026-04-25 17:58 49.89454 1.86326 38166 ft 419 kts 292°
2026-04-25 17:59 49.91616 1.78130 38156 ft 401 kts 290°
2026-04-25 17:59 49.93697 1.70022 38191 ft 408 kts 290°
2026-04-25 18:00 49.95864 1.61767 38206 ft 417 kts 291°
2026-04-25 18:00 49.98320 1.53541 38168 ft 424 kts 301°
2026-04-25 18:01 50.02137 1.46591 38183 ft 425 kts 316°
2026-04-25 18:01 50.06557 1.40652 38061 ft 417 kts 317°
2026-04-25 18:01 50.08753 1.37730 37695 ft 411 kts 317°
2026-04-25 18:02 50.10900 1.34851 37302 ft 406 kts 317°
2026-04-25 18:02 50.13020 1.31985 36968 ft 400 kts 317°
2026-04-25 18:02 50.15110 1.29141 36574 ft 397 kts 317°
2026-04-25 18:02 50.17177 1.26318 36218 ft 393 kts 317°
2026-04-25 18:03 50.19222 1.23516 35859 ft 390 kts 317°
2026-04-25 18:03 50.21251 1.20733 35488 ft 387 kts 317°
2026-04-25 18:03 50.23263 1.17968 35120 ft 384 kts 317°
2026-04-25 18:03 50.25261 1.15221 34759 ft 382 kts 317°
2026-04-25 18:04 50.27249 1.12484 34401 ft 379 kts 317°
2026-04-25 18:04 50.29221 1.09767 34029 ft 377 kts 317°
2026-04-25 18:04 50.31182 1.07062 33628 ft 374 kts 317°
2026-04-25 18:04 50.33125 1.04378 33268 ft 371 kts 317°
2026-04-25 18:05 50.35050 1.01715 32904 ft 368 kts 317°
2026-04-25 18:05 50.36959 0.99071 32565 ft 364 kts 317°
2026-04-25 18:05 50.38850 0.96448 32219 ft 362 kts 317°
2026-04-25 18:05 50.40728 0.93844 31867 ft 359 kts 317°
2026-04-25 18:06 50.42594 0.91253 31536 ft 357 kts 317°
2026-04-25 18:06 50.44444 0.88683 31201 ft 354 kts 317°
2026-04-25 18:06 50.46297 0.86175 30931 ft 350 kts 318°
2026-04-25 18:06 50.48156 0.83726 30597 ft 348 kts 318°
2026-04-25 18:07 50.50008 0.81291 30253 ft 346 kts 318°
2026-04-25 18:07 50.51818 0.78900 29893 ft 343 kts 318°
2026-04-25 18:07 50.53656 0.76462 29558 ft 339 kts 318°
2026-04-25 18:07 50.55451 0.74076 29211 ft 337 kts 318°
2026-04-25 18:08 50.57221 0.71716 28966 ft 342 kts 318°
2026-04-25 18:08 50.59110 0.69193 28722 ft 361 kts 318°
2026-04-25 18:08 50.60401 0.67466 28571 ft 373 kts 318°
2026-04-25 18:08 50.63134 0.63811 28239 ft 397 kts 318°
2026-04-25 18:09 50.65230 0.61006 27992 ft 402 kts 318°
2026-04-25 18:09 50.67357 0.58157 27722 ft 401 kts 318°
2026-04-25 18:09 50.69478 0.55314 27456 ft 400 kts 318°
2026-04-25 18:09 50.70190 0.54359 27350 ft 398 kts 318°
2026-04-25 18:10 50.73655 0.49699 26618 ft 390 kts 318°
2026-04-25 18:10 50.75709 0.46934 26155 ft 386 kts 318°
2026-04-25 18:10 50.77738 0.44196 25707 ft 382 kts 318°
2026-04-25 18:10 50.79072 0.42396 25412 ft 380 kts 318°
2026-04-25 18:11 50.81072 0.39696 24978 ft 376 kts 318°
2026-04-25 18:11 50.83051 0.37020 24547 ft 373 kts 318°
2026-04-25 18:11 50.85017 0.34358 24118 ft 370 kts 318°
2026-04-25 18:11 50.86964 0.31720 23671 ft 368 kts 318°
2026-04-25 18:12 50.88900 0.29091 23183 ft 365 kts 318°
2026-04-25 18:12 50.90818 0.26485 22711 ft 362 kts 318°
2026-04-25 18:12 50.92717 0.23900 22283 ft 358 kts 318°
2026-04-25 18:12 50.94601 0.21333 21852 ft 356 kts 318°
2026-04-25 18:13 50.96472 0.18783 21425 ft 353 kts 318°
2026-04-25 18:13 50.98331 0.16247 20992 ft 351 kts 318°
2026-04-25 18:13 51.00174 0.13729 20565 ft 349 kts 318°
2026-04-25 18:14 51.03967 0.08963 19695 ft 348 kts 323°
2026-04-25 18:14 51.05964 0.06766 19254 ft 351 kts 324°
2026-04-25 18:14 51.07993 0.04571 18795 ft 354 kts 324°
2026-04-25 18:14 51.10037 0.02357 18290 ft 356 kts 324°
2026-04-25 18:15 51.12081 0.00127 17777 ft 356 kts 324°
2026-04-25 18:15 51.14119 -0.02112 17241 ft 356 kts 324°
2026-04-25 18:15 51.16143 -0.04349 16773 ft 353 kts 324°
2026-04-25 18:15 51.18150 -0.06575 16312 ft 351 kts 324°
2026-04-25 18:16 51.20138 -0.08787 15862 ft 347 kts 324°
2026-04-25 18:16 51.22113 -0.10986 15422 ft 345 kts 324°
2026-04-25 18:16 51.25997 -0.15317 14551 ft 341 kts 324°
2026-04-25 18:17 51.27961 -0.17510 14118 ft 339 kts 324°
2026-04-25 18:17 51.29865 -0.19640 13634 ft 338 kts 324°
2026-04-25 18:17 51.31808 -0.21815 13158 ft 336 kts 324°
2026-04-25 18:17 51.33711 -0.23950 12725 ft 333 kts 324°
2026-04-25 18:18 51.35603 -0.26074 12271 ft 331 kts 324°
2026-04-25 18:18 51.37459 -0.28157 11849 ft 329 kts 324°
2026-04-25 18:18 51.39323 -0.30253 11442 ft 326 kts 324°
2026-04-25 18:18 51.41172 -0.32335 11010 ft 324 kts 324°
2026-04-25 18:19 51.43026 -0.34393 10582 ft 323 kts 328°
2026-04-25 18:19 51.45092 -0.35761 10170 ft 323 kts 344°
2026-04-25 18:19 51.47227 -0.36635 10156 ft 308 kts 345°
2026-04-25 18:19 51.49258 -0.37456 10091 ft 296 kts 345°
2026-04-25 18:20 51.51222 -0.38261 9999 ft 286 kts 345°
2026-04-25 18:20 51.53114 -0.39046 9905 ft 276 kts 345°
2026-04-25 18:20 51.54949 -0.39815 9688 ft 271 kts 345°
2026-04-25 18:20 51.56759 -0.40580 9361 ft 267 kts 345°
2026-04-25 18:21 51.58557 -0.41344 8826 ft 268 kts 345°
2026-04-25 18:21 51.60358 -0.42112 8365 ft 266 kts 345°
2026-04-25 18:21 51.62139 -0.42875 7921 ft 264 kts 345°
2026-04-25 18:21 51.63906 -0.43630 7476 ft 262 kts 345°
2026-04-25 18:22 51.65666 -0.44383 7015 ft 262 kts 345°
2026-04-25 18:22 51.66829 -0.44880 6832 ft 260 kts 345°
2026-04-25 18:22 51.69149 -0.45877 6227 ft 257 kts 345°
2026-04-25 18:22 51.70866 -0.46617 5844 ft 253 kts 345°
2026-04-25 18:23 51.72541 -0.47337 5569 ft 246 kts 345°
2026-04-25 18:23 51.74159 -0.48050 5378 ft 236 kts 345°
2026-04-25 18:23 51.75703 -0.48711 5069 ft 227 kts 345°
2026-04-25 18:23 51.77208 -0.49355 4707 ft 220 kts 345°
2026-04-25 18:24 51.78672 -0.49986 4315 ft 215 kts 346°
2026-04-25 18:24 51.80102 -0.50600 3929 ft 210 kts 346°
2026-04-25 18:24 51.81493 -0.51198 3555 ft 202 kts 346°
2026-04-25 18:24 51.82822 -0.51776 3170 ft 194 kts 345°
2026-04-25 18:25 51.84114 -0.52135 2776 ft 184 kts
2026-04-25 18:25 51.85120 -0.51125 2447 ft 171 kts 63°
2026-04-25 18:25 51.85421 -0.49350 2202 ft 159 kts 76°
2026-04-25 18:25 51.85661 -0.47677 1965 ft 149 kts 76°
2026-04-25 18:26 51.85903 -0.46055 1605 ft 146 kts 76°
2026-04-25 18:26 51.86153 -0.44474 1326 ft 145 kts 73°
2026-04-25 18:26 51.86425 -0.42888 1126 ft 148 kts 74°
2026-04-25 18:26 51.86691 -0.41284 927 ft 146 kts 74°
2026-04-25 18:27 51.86964 -0.39705 714 ft 145 kts 73°
2026-04-25 18:27 51.87236 -0.38145 548 ft 143 kts 73°
2026-04-25 18:27 51.87482 -0.36735 525 ft 105 kts 74°
2026-04-25 18:27 51.87601 -0.36045 514 ft 32 kts 75°
2026-04-25 18:28 51.87659 -0.35917 515 ft 13 kts 358°
2026-04-25 18:28 51.87746 -0.35957 515 ft 13 kts 334°
2026-04-25 18:28 51.87783 -0.36077 517 ft 13 kts 263°
2026-04-25 18:29 51.87737 -0.36346 517 ft 12 kts 254°
2026-04-25 18:29 51.87714 -0.36480 519 ft 13 kts 255°
2026-04-25 18:30 51.87601 -0.37137 521 ft 25 kts 254°
2026-04-25 18:30 51.87579 -0.37356 521 ft 17 kts 282°
2026-04-25 18:30 51.87657 -0.37486 521 ft 17 kts 327°
2026-04-25 18:30 51.87722 -0.37648 518 ft 18 kts 295°
2026-04-25 18:31 51.87776 -0.37831 522 ft 18 kts 295°
2026-04-25 18:31 51.87844 -0.37986 522 ft 17 kts 328°
2026-04-25 18:31 51.87955 -0.38002 522 ft 16 kts 20°
2026-04-25 18:31 51.88032 -0.37916 522 ft 9 kts 37°
2026-04-25 18:32 51.88036 -0.37863 522 ft 5 kts 121°
2026-04-25 18:32 51.88022 -0.37833 522 ft 2 kts 128°
2026-04-25 18:32 51.88020 -0.37830 522 ft 0 kts 128°